Regional Weather Roundup
Issued by NWS

Home | Current Version | Previous Version | Graphics & Text | Print | Product List | Glossary On
Versions: 1 2 3 4 5 6 7 8 9 10 11 12 13 14 15 16 17 18 19 20 21 22 23 24 25 26
000
ASUS45 KBOI 121810
RWRID

IDAHO REGIONAL WEATHER ROUNDUP
NATIONAL WEATHER SERVICE BOISE ID
1100 AM MST TUE DEC 12 2017

NOTE: "FAIR" INDICATES FEW OR NO CLOUDS BELOW 12000 FEET
WITH NO SIGNIFICANT WEATHER AND/OR OBSTRUCTIONS TO VISIBILITY

IDZ012-014-121900-
SOUTHWEST IDAHO


CITY           SKY/WX    TMP DP  RH WIND       PRES   REMARKS
BOISE          CLOUDY    23  21  92 CALM      30.67S FOG
CALDWELL       NOT AVBL
MOUNTAIN HOME  FOG       22  22 100 VRB2      30.66F VSB 1/2
$$

IDZ016-017-121900-
SOUTHCENTRAL IDAHO


CITY           SKY/WX    TMP DP  RH WIND       PRES   REMARKS
BURLEY         FOG       21  17  84 CALM      30.58F VSB 1/2
JEROME         HAZE      25  18  74 VRB3      30.60F VSB 1/4
TWIN FALLS     FOG       23  20  88 N5        30.59F VSB<1/4 WCI  17
$$

IDZ019>023-121900-
SOUTHEAST IDAHO


CITY           SKY/WX    TMP DP  RH WIND       PRES   REMARKS
IDAHO FALLS    CLOUDY    20  16  84 CALM      30.56F
POCATELLO      CLOUDY    22  19  89 SW5       30.57F WCI  16
REXBURG        CLOUDY    21  12  68 N3        30.55F
$$

IDZ006-010-011-018-031-032-121900-
CENTRAL IDAHO MOUNTAINS


CITY           SKY/WX    TMP DP  RH WIND       PRES   REMARKS
MCCALL         PTSUNNY   11  10  96 CALM      30.51F
HAILEY         SUNNY     30  14  51 CALM      30.54F
STANLEY          N/A      7   1  76 CALM      30.59S
SALMON         LGT SNOW  14  12  92 N5        30.67F FOG     WCI   6
CHALLIS        SUNNY     17  11  77 CALM      30.58F
$$

IDZ002-004-006-007-026-121900-
NORTHERN IDAHO


CITY           SKY/WX    TMP DP  RH WIND       PRES   REMARKS
LEWISTON       MOSUNNY   30  23  75 E3        30.62R
LOWELL           N/A     35  27  72 CALM      30.65F
COEUR D`ALENE  CLOUDY    27  26  96 W5        30.56S WCI  22
MULLAN PASS    PTSUNNY   32   9  38 SW6       30.41R WCI  26
$$




USA.gov is the U.S. government's official web portal to all federal, state and local government web resources and services.